Regional Weather Roundup
Issued by NWS

Home | Current Version | Previous Version | Graphics & Text | Print | Product List | Glossary Off
Versions: 1 2 3 4 5 6 7 8 9 10 11 12 13 14 15 16 17 18 19 20 21 22 23 24 25 26 27 28 29 30 31 32 33 34 35 36 37 38 39 40 41 42 43 44 45 46 47 48 49 50

000
ASUS43 KLOT 192008
RWRIL

ILLINOIS REGIONAL WEATHER ROUNDUP
NATIONAL WEATHER SERVICE CHICAGO/ROMEOVILLE IL
200 PM CST SUN NOV 19 2017

NOTE: "FAIR" INDICATES FEW OR NO CLOUDS BELOW 12,000 FEET WITH NO
SIGNIFICANT WEATHER AND/OR OBSTRUCTIONS TO VISIBILITY.

* THESE STATIONS ARE NOT UNDER NWS QUALITY CONTROL. THEY ALSO MAY NOT
  REPORT WEATHER SUCH AS PRECIPITATION OR FOG.

ILZ001-002-007-009-015-016-024-192100-
NORTHWEST ILLINOIS

CITY           SKY/WX    TMP DP  RH WIND       PRES   REMARKS
MOLINE         MOSUNNY   38  17  42 W10       30.12F WCI  31
STERLING*      CLOUDY    34  19  54 W14       30.09F WCI  25
SAVANNA*       PTSUNNY   34  17  48 W10       30.10S WCI  26
$$

ILZ003-004-008-010-011-017-018-192100-
NORTH CENTRAL ILLINOIS

CITY           SKY/WX    TMP DP  RH WIND       PRES   REMARKS
ROCKFORD       PTSUNNY   33  16  49 NW13      30.07F WCI  24
FREEPORT*      MOSUNNY   34  17  51 W14       30.08S WCI  24
ROCHELLE*      PTSUNNY   34  19  54 W14       30.07F WCI  25
DE KALB*       SUNNY     32  18  55 W17       30.05F WCI  21
PERU*          CLOUDY    31  18  57 W13G20    30.10S WCI  22
$$

ILZ005-006-012>014-019>023-192100-
NORTHEAST ILLINOIS

CITY           SKY/WX    TMP DP  RH WIND       PRES   REMARKS
CHICAGO-OHARE  MOSUNNY   35  16  45 NW15      30.03S WCI  25
CHICAGO-MIDWAY MOSUNNY   35  18  49 W14G21    30.04S WCI  26
AURORA         MOSUNNY   34  20  56 W16       30.06S WCI  24
LANSING*       SUNNY     35  21  58 W13G20    30.05S WCI  26
JOLIET*        MOSUNNY   35  20  54 W8        30.08R WCI  28
WAUKEGAN       SUNNY     33  14  45 W8G20     30.00F WCI  26
DUPAGE AIRPORT SUNNY     33  18  53 W15       30.04S WCI  23
KANKAKEE*      SUNNY     34  22  60 W18       30.09S WCI  23
WHEELING       SUNNY     36  16  44 W14       30.03F WCI  27
MORRIS*        MOSUNNY   33  20  59 W15G23    30.07S WCI  23
ROMEOVILLE*    MOSUNNY   34  21  59 W16       30.06S WCI  23
NORTHERLY ISL    N/A     34  16  48 W15         N/A  WCI  24
$$

LMZ740>746-192100-
SOUTHERN LAKE MICHIGAN

STATION/POSITION SKY/WX   TEMP    WIND        PRES    VSBY  WAVE
                          AIR SEA DIR/SP/G                  HT/PER
                          (F)     (DEG/KT/KT) (MB)    (MI)  (FT/S)
SOUTHERN BUOY              32 49  320/ 16/ 23 1016.3F         5/ 7
HARRISON CRIB              34     280/ 14/ 16   N/A
BURNHAM HARBOR             35     260/ 13/ 15   N/A
CALUMET HARBOR             35     260/  8/ 15 1016.6R
BURNS HARBOR               34     290/ 14/ 19 1017.3F
MICHIGAN CITY              33     260/ 17/ 19   N/A
$$

ILZ025>027-034>036-040-047-049-050-058-095>099-192100-
WEST-CENTRAL ILLINOIS

CITY           SKY/WX    TMP DP  RH WIND       PRES   REMARKS
QUINCY         SUNNY     40  20  44 W8        30.17F
GALESBURG*     MOSUNNY   35  21  57 W10G16    30.14F WCI  27
MACOMB*        MOSUNNY   36  21  53 W13       30.19S WCI  28
JACKSONVILLE*  SUNNY     38  21  50 W13       30.18S WCI  30
PITTSFIELD*    SUNNY     40  19  43 W9        30.20S
$$

ILZ028>032-037-038-041>044-048-051>054-059>061-192100-
CENTRAL ILLINOIS

CITY           SKY/WX    TMP DP  RH WIND       PRES   REMARKS
PONTIAC        MOSUNNY   35  23  62 W14       30.11S WCI  25
BLOOMINGTON    CLOUDY    34  19  54 W14       30.12S WCI  25
DECATUR        PTSUNNY   36  17  46 NW13G23   30.14F WCI  27
PEORIA         MOSUNNY   35  17  47 W12       30.14S WCI  27
LACON*         CLOUDY    35  18  50 NW13G18   30.11F WCI  26
LINCOLN*       MOSUNNY   37  20  51 W6        30.15S WCI  32
SPRINGFIELD    SUNNY     39  21  48 W12       30.16F WCI  32
TAYLORVILLE    SUNNY     36  20  53 W12       30.15F WCI  28
$$

ILZ033-039-045-046-055>057-062-063-192100-
EAST-CENTRAL ILLINOIS

CITY           SKY/WX    TMP DP  RH WIND       PRES   REMARKS
CHAMPAIGN      MOSUNNY   36  23  59 W17       30.12F WCI  26
DANVILLE*      SUNNY     34  23  65 W10G17    30.07F WCI  26
RANTOUL*       MOSUNNY   35  24  62 W14       30.11S WCI  26
MATTOON        MOSUNNY   35  22  58 NW16      30.13F WCI  25
PARIS*         MOSUNNY   34  26  72 W17       30.13F WCI  24
$$

ILZ079-100>102-192100-
SOUTHWEST ILLINOIS

CITY           SKY/WX    TMP DP  RH WIND       PRES   REMARKS
ALTON          MOSUNNY   39  18  41 MISG      30.22S
BELLEVILLE     SUNNY     42  17  36 NW9       30.19F
CAHOKIA*       SUNNY     42  16  34 NW7       30.21F
SPARTA*        SUNNY     40  18  41 W7G17     30.21F
$$

ILZ064>066-069>071-074>076-080>082-084>086-088>090-092>094-192100-
SOUTH-CENTRAL ILLINOIS

CITY           SKY/WX    TMP DP  RH WIND       PRES   REMARKS
CARBONDALE     SUNNY     42  21  43 NW14      30.21F
CAIRO*         SUNNY     44  24  45 W10G16    30.21S
EFFINGHAM*     SUNNY     38  23  56 W14       30.18F WCI  29
MARION         SUNNY     43  19  39 NW9       30.22R
MT. VERNON     SUNNY     40  19  43 W9        30.20F
CENTRALIA*     SUNNY     40  23  51 W14       30.19F
SALEM*         SUNNY     40  20  45 W13       30.18F
METROPOLIS*    SUNNY     45  23  43 NW13G20   30.21R
$$

ILZ067-068-072-073-078-083-087-091-192100-
SOUTHEAST ILLINOIS

CITY           SKY/WX    TMP DP  RH WIND       PRES   REMARKS
LAWRENCEVILLE  SUNNY     40  23  50 W16       30.16F
FLORA*         SUNNY     40  22  49 NW13      30.13F
FAIRFIELD*     SUNNY     40  19  41 W3        30.18S
HARRISBURG*    SUNNY     41  22  46 NW14      30.21S
ROBINSON*      SUNNY     37  23  56 W13G18    30.16F WCI  29
CARMI*         SUNNY     41  23  49 W17G24    30.18F
$$

ABBREVIATIONS USED IN REMARKS
   TC - TEMPERATURE IN CELSIUS
  WCI - WIND CHILL INDEX
   HX - HEAT INDEX
  VSB - VISIBILITY
$$




USA.gov is the U.S. government's official web portal to all federal, state and local government web resources and services.